Flag for Austria Weather past 2 weeks in Klagenfurt, Carinthia, Austria

Now
52 °F

Partly cloudy.


Feels Like: 52 °F
Forecast: 49 / 57 °F
Wind: 2 mph from West

Location: Klagenfurt-Flughafen


UV Index: 0 (Low)

Visibility: N/A


Pressure: 30.04 "Hg

Humidity: 94%

Dew point: 50 °F

Location of KlagenfurtLocation

Historic Weather in Klagenfurt

°F

Klagenfurt temperature yesterday

Maximum temperature yesterday: 66 °F (at 1:50 PM)
Minimum temperature yesterday: 48 °F (at 5:50 AM)
Average temperature yesterday: 57 °F

Past Weeks' High & Low Weather Summary

 TemperatureHumidityPressure
High68 °F (Apr 14, 2:20 PM)100% (Apr 13, 6:20 AM)30.24 "Hg (Apr 13, 6:20 AM)
Low30 °F (Apr 16, 4:20 AM)22% (Apr 18, 2:20 PM)29.68 "Hg (Apr 18, 4:20 PM)
Average50 °F67%29.97 "Hg
* Reported Apr 9 3:20 AM — Apr 24 3:20 AM, Klagenfurt, Weather by CustomWeather, © 2014

Note: Actual official high and low records may vary slightly from our data, if they occured in-between our weather recording intervals... More about our weather records

Advertising

Historic Weather Conditions — Data for Previous 24 hours

 ConditionsComfort  
Time TempWeatherWind HumidityBarometerVisibility
3:20 AM
Apr 24
52 °FPassing clouds.3 mph94%30.04 "HgN/A
2:50 AM52 °FPassing clouds.5 mph94%30.04 "HgN/A
2:20 AM52 °FPassing clouds.5 mph94%30.04 "HgN/A
1:50 AM52 °FPassing clouds.2 mph94%30.04 "HgN/A
1:20 AM52 °FPassing clouds.3 mph94%30.04 "HgN/A
12:50 AM54 °FPassing clouds.3 mph94%30.07 "HgN/A
12:20 AM54 °FLight rain. Overcast.5 mph88%30.07 "HgN/A
11:50 PM
Apr 23
54 °FDrizzle. Overcast.3 mph88%30.07 "HgN/A
11:20 PM54 °FPartly cloudy.5 mph88%30.07 "HgN/A
10:50 PM54 °FPassing clouds.3 mph88%30.07 "HgN/A
10:20 PM54 °FSprinkles. Passing clouds.6 mph88%30.07 "HgN/A
9:50 PM54 °FPassing clouds.5 mph88%30.07 "HgN/A
9:20 PM55 °FPassing clouds.6 mph82%30.07 "HgN/A
8:50 PM55 °FBroken clouds.6 mph77%30.07 "HgN/A
8:20 PM55 °FBroken clouds.6 mph82%30.07 "HgN/A
7:50 PM61 °FBroken clouds.3 mph63%30.04 "HgN/A
7:20 PM61 °FThundershowers. Broken clouds.3 mph68%30.04 "HgN/A
6:50 PM61 °FBroken clouds.6 mph72%30.01 "HgN/A
6:20 PM64 °FBroken clouds.2 mph56%30.01 "HgN/A
5:50 PM64 °FPartly sunny.2 mph56%30.01 "HgN/A
5:20 PM63 °FPartly sunny.2 mph59%30.01 "HgN/A
4:50 PM61 °FPartly sunny.2 mph63%30.01 "HgN/A
4:20 PM61 °FScattered clouds.2 mph63%30.01 "HgN/A
3:50 PM59 °FThunderstorms. Broken clouds.6 mph68%30.04 "HgN/A
3:20 PM66 °FThunderstorms. Broken clouds.5 mph52%30.04 "HgN/A
2:50 PM66 °FBroken clouds.6 mph52%30.04 "HgN/A
2:20 PM66 °FBroken clouds.7 mph56%30.04 "HgN/A
1:50 PM66 °FPartly sunny.6 mph52%30.07 "HgN/A
1:20 PM64 °FPartly sunny.5 mph56%30.07 "HgN/A
12:50 PM64 °FPartly sunny.3 mph56%30.07 "HgN/A
12:20 PM64 °FPartly sunny.3 mph60%30.09 "HgN/A
11:50 AM63 °FScattered clouds.3 mph59%30.09 "HgN/A
11:20 AM61 °FScattered clouds.3 mph68%30.09 "HgN/A
10:50 AM59 °FScattered clouds.2 mph72%30.09 "HgN/A
10:20 AM59 °FScattered clouds.2 mph77%30.09 "HgN/A
9:50 AM59 °FScattered clouds.2 mph72%30.09 "HgN/A
9:20 AM57 °FScattered clouds.1 mph77%30.09 "HgN/A
8:50 AM54 °FScattered clouds.1 mph88%30.09 "HgN/A
8:20 AM52 °FScattered clouds.3 mph94%30.09 "HgN/A
7:50 AM50 °FScattered clouds.3 mph94%30.09 "HgN/A
7:20 AM50 °FScattered clouds.2 mph94%30.09 "HgN/A
6:50 AM48 °FPassing clouds.6 mph100%30.09 "HgN/A
6:20 AM48 °FFog.5 mph100%30.07 "HgN/A
5:50 AM48 °FFog.5 mph100%30.07 "HgN/A
4:50 AM50 °FFog.1 mph100%30.07 "HgN/A
4:20 AM50 °FFog.1 mph100%30.07 "HgN/A
Weather by CustomWeather, © 2014

See weather overview